This is the latest recevied weather packets stored in our database for station/object SM6LNJ-13. If no packets are shown the sender has not sent any weather packets the latest 1 day(s).
| Time | Temp. | Humidity | Pressure | Rain* | Wind** | Luminosity | Snow |
|---|---|---|---|---|---|---|---|
| 1836274782 | 16.67° C | 91% | 1435.1 hPa | 0 mm | 1.79 m/s, 140° | - | - |
| 1836274662 | 16.67° C | 91% | 1435.1 hPa | 0 mm | 0.89 m/s, 145° | - | - |
| 1836274542 | 16.67° C | 91% | 1435.1 hPa | 0 mm | 1.34 m/s, 152° | - | - |
| 1836274512 | 16.67° C | 92% | 1434.9 hPa | 0 mm | 1.34 m/s, 145° | - | - |
| 1836274422 | 16.67° C | 91% | 1435.1 hPa | 0 mm | 1.34 m/s, 144° | - | - |
| 1836274392 | 16.67° C | 92% | 1435 hPa | 0 mm | 1.34 m/s, 139° | - | - |
| 1836274302 | 16.67° C | 91% | 1435.1 hPa | 0 mm | 1.34 m/s, 156° | - | - |
| 1836274272 | 16.67° C | 92% | 1435 hPa | 0 mm | 0.89 m/s, 139° | - | - |
| 1836274182 | 16.67° C | 91% | 1435.1 hPa | 0 mm | 0.89 m/s, 134° | - | - |
| 1836274152 | 16.67° C | 92% | 1435 hPa | 0 mm | 0.89 m/s, 150° | - | - |
| 1836274062 | 16.67° C | 91% | 1435.1 hPa | 0 mm | 1.79 m/s, 149° | - | - |
| 1836273942 | 16.67° C | 91% | 1435.1 hPa | 0 mm | 1.34 m/s, 150° | - | - |
| 1778067110 | 13.89° C | 42% | 1428.4 hPa | 0 mm | 0.45 m/s, 194° | - | - |
| 1778066990 | 13.89° C | 42% | 1428.4 hPa | 0 mm | 0.89 m/s, 202° | - | - |
| 1778066870 | 13.89° C | 42% | 1428.8 hPa | 0 mm | 0.89 m/s, 230° | - | - |
| 1778066750 | 14.44° C | 43% | 1429.4 hPa | 0 mm | 0.89 m/s, 209° | - | - |
| 1778066630 | 14.44° C | 41% | 1429.6 hPa | 0 mm | 0.45 m/s, 190° | - | - |
| 1778066510 | 14.44° C | 42% | 1429.3 hPa | 0 mm | 0.45 m/s, 195° | - | - |
| 1778066390 | 13.89° C | 42% | 1429 hPa | 0 mm | 0.89 m/s, 222° | - | - |
| 1778066270 | 13.89° C | 41% | 1428.7 hPa | 0 mm | 0.89 m/s, 177° | - | - |
| 1778066150 | 13.89° C | 42% | 1428.7 hPa | 0 mm | 0.45 m/s, 204° | - | - |
| 1778066030 | 13.89° C | 40% | 1428.5 hPa | 0 mm | 0.89 m/s, 200° | - | - |
| 1778065910 | 13.89° C | 41% | 1428.3 hPa | 0 mm | 0.45 m/s, 233° | - | - |
| 1778065790 | 13.89° C | 43% | 1428.2 hPa | 0 mm | 0.45 m/s, 184° | - | - |
| 1778065670 | 13.89° C | 42% | 1428 hPa | 0 mm | 0.89 m/s, 186° | - | - |
* Rain latest hour (hover to see other rain measurements)
** Current wind speed in m/s (hover to see current wind gust speed)